Flag for Germany Weather past 2 weeks in Weinheim, Baden-Württemberg, Germany

Now
68 °F

Passing clouds.


Feels Like: 68 °F
Forecast: 60 / 95 °F
Wind: 3 mph from North

Location: Baden Wurttemberg - Neuostheim

Current Time: Jul 6, 2015 at 7:51:05 AM

Latest Report: Jul 6, 2015 at 7:20 AM


Visibility: N/A

Pressure: 30.18 "Hg

Humidity: 69%

Dew point: 57 °F

Location of WeinheimLocation

Historic Weather in Weinheim — Graph

°F

Weinheim temperature yesterday

Maximum temperature yesterday: 100 °F (at 3:50 PM)
Minimum temperature yesterday: 81 °F (at 7:50 AM)
Average temperature yesterday: 94 °F

Past Weeks' High & Low Weather Summary

 TemperatureHumidityPressure
High100 °F (Jul 4, 6:20 PM)100% (Jun 22, 5:50 AM)30.21 "Hg (Jun 22, 5:50 AM)
Low50 °F (Jun 23, 5:20 AM)24% (Jul 1, 2:50 PM)29.74 "Hg (Jun 22, 9:20 PM)
Average74 °F54%30.08 "Hg
* Reported Jun 21 6:50 AM — Jul 6 6:20 AM, Weinheim, Weather by CustomWeather, © 2015

Note: Actual official high and low records may vary slightly from our data, if they occured in-between our weather recording intervals... More about our weather records

Advertising

Weinheim weather history for previous 24 hours

 ConditionsComfort  
Time TempWeatherWind HumidityBarometerVisibility
6:20 AM
Mon, Jul 6
68 °FPassing clouds.5 mph69%30.18 "HgN/A
5:50 AM66 °FPassing clouds.6 mph73%30.18 "HgN/A
5:20 AM68 °FPassing clouds.7 mph69%30.15 "HgN/A
7:20 PM
Sun, Jul 5
99 °FPassing clouds.8 mph29%29.86 "HgN/A
6:50 PM99 °FPassing clouds.8 mph29%29.86 "HgN/A
6:20 PM99 °FPassing clouds.9 mph29%29.86 "HgN/A
5:50 PM99 °FPassing clouds.9 mph29%29.86 "HgN/A
5:20 PM100 °FPassing clouds.9 mph27%29.86 "HgN/A
4:50 PM99 °FPassing clouds.9 mph29%29.89 "HgN/A
4:20 PM99 °FPassing clouds.9 mph29%29.89 "HgN/A
3:50 PM100 °FPassing clouds.9 mph27%29.92 "HgN/A
3:20 PM99 °FPassing clouds.10 mph29%29.92 "HgN/A
2:50 PM99 °FPassing clouds.10 mph29%29.95 "HgN/A
2:20 PM99 °FPassing clouds.8 mph25%29.95 "HgN/A
1:50 PM99 °FPassing clouds.8 mph25%29.95 "HgN/A
1:20 PM97 °FPassing clouds.7 mph34%29.95 "HgN/A
12:50 PM97 °FPassing clouds.8 mph32%29.98 "HgN/A
12:20 PM95 °FSunny.5 mph34%29.98 "Hg10 mi
11:50 AM93 °FSunny.3 mph41%29.98 "Hg10 mi
11:20 AM90 °FSunny.3 mph46%30.01 "Hg10 mi
10:50 AM88 °FSunny.3 mph49%30.01 "Hg10 mi
10:20 AM86 °FPassing clouds.5 mph52%30.01 "HgN/A
9:50 AM84 °FPassing clouds.5 mph58%30.01 "HgN/A
9:20 AM82 °FSunny.3 mph58%30.04 "Hg10 mi
8:50 AM82 °FSunny.6 mph58%30.01 "Hg10 mi
8:20 AM82 °FSunny.2 mph55%30.04 "Hg10 mi
7:50 AM81 °FSunny.2 mph58%30.04 "Hg10 mi
Weather by CustomWeather, © 2015

See weather overviewHow to use our weather pages